www.pogodaiklimat.ru

Погода и климат >> Архив погоды >> Оман >> Сиб


ПОГОДА в Сибе

  • Прогноз погоды в Сибе
  • Монитор погоды в Сибе

АРХИВ ПОГОДЫ в Сибе

Время (UTC), дата Ветер
(напр.,м/с)
 
Видим.   Явления Облачность Т
(С)
Тd
(С)
f
(%)
Тe
(С)
Тes
(С)
Комфортность P
(гПа)
Po
(гПа)
Тmin
(С)
Tmax
(С)
R
(мм)
R24
(мм)
S
(см)
15 9.07 В 3 5000 м мгла 6/1 1050 м
[Sc As op Ci fib]
+31.2 +28.6 86 +53 +53 опасность
перегрева
992.3 990.6
18 9.07 СЗ 2 7000 м мгла ясно +31.5 +28.5 84 +53 +53 опасность
перегрева
993.1 991.4 +36.5
21 9.07 З 2 8000 м мгла ясно +32.8 +28.3 77 +54 +54 опасность
перегрева
992.1 990.4
00 10.07 С 2 6000 м мгла ясно +30.8 +29.6 93 +55 +55 опасность
перегрева
993.1 991.4
03 10.07 СВ 4 4500 м дымка ясно +30.7 +29.6 94 +55 +57 опасность
перегрева
994.3 992.6
06 10.07 СВ 3 8000 м мгла 3/0
[Ci fib]
+35.7 +26.7 60 +53 +67 опасность
перегрева
994.4 992.8 +30.4
09 10.07 СВ 6 7000 м мгла 5/0
[Ci fib]
+33.2 +29.6 81 +58 +67 опасность
перегрева
993.3 991.6
12 10.07 В 7 70 км мгла 3/0
[]
+33.1 +28.6 77 +55 +57 опасность
перегрева
992.1 990.4
15 10.07 В 4 8000 м мгла 6/0
[As op Ci ing]
+32.2 +28.5 81 +54 +54 опасность
перегрева
992.8 991.1
18 10.07 СВ 3 8000 м мгла ясно +32.1 +28.1 79 +53 +53 опасность
перегрева
994.5 992.8 +39.7
21 10.07 СЗ 2 8000 м мгла ясно +32.2 +28.4 80 +54 +54 опасность
перегрева
994.1 992.4
00 11.07 СВ 3 70 км ?/? +32.1 +28.1 79 +53 +53 опасность
перегрева
994.5 992.8 +39.7
03 11.07 СВ 3 70 км 10/10 300 м
[]
+30.6 +29.5 94 +55 +55 опасность
перегрева
996.9 995.2
06 11.07 СВ 5 8000 м мгла 4/0
[Ci fib]
+33.0 +28.6 78 +55 +64 опасность
перегрева
997.5 995.8 +30.2
09 11.07 СВ 5 8000 м мгла ясно +34.4 +28.1 70 +55 +66 опасность
перегрева
996.6 994.8
12 11.07 СВ 5 7000 м мгла ясно +32.2 +28.6 81 +54 +58 опасность
перегрева
995.3 993.6
15 11.07 СВ 3 9000 м мгла ясно +32.8 +26.3 69 +49 +49 опасность
перегрева
995.5 993.8
18 11.07 СВ 1 10 км ясно +32.9 +23.5 58 +44 +44 опасность
перегрева
996.8 995.1 +35.5
21 11.07 СВ 3 10 км ясно +32.2 +25.0 66 +46 +46 опасность
перегрева
995.7 994.0
00 12.07 З 4 10 км ясно +32.7 +17.2 40 +36 +36 очень
душно
995.8 994.1
03 12.07 СЗ 3 10 км ясно +31.3 +29.1 88 +55 +57 опасность
перегрева
997.0 995.3
06 12.07 В 6 9000 м мгла ясно +33.5 +27.9 73 +54 +62 опасность
перегрева
997.7 996.0 +30.3
09 12.07 СВ 7 8000 м мгла ясно +34.6 +28.7 72 +58 +64 опасность
перегрева
996.3 994.6
12 12.07 В 6 8000 м мгла ясно +34.3 +28.4 71 +56 +59 опасность
перегрева
995.0 993.3
15 12.07 В 4 8000 м мгла 1/0
[Ci fib]
+31.4 +27.8 81 +51 +51 опасность
перегрева
995.6 993.4
18 12.07 В 4 9000 м мгла ясно +30.8 +28.1 86 +51 +51 опасность
перегрева
997.0 995.3 +35.2
21 12.07 СВ 1 8000 м мгла ясно +30.7 +28.0 86 +51 +51 опасность
перегрева
996.1 994.4
00 13.07 З 6 8000 м мгла ясно +31.1 +28.1 84 +51 +51 опасность
перегрева
996.0 994.3
03 13.07 З 3 7000 м мгла ясно +31.0 +28.4 86 +52 +54 опасность
перегрева
998.4 996.7
06 13.07 С 3 8000 м мгла ясно +32.2 +29.2 84 +56 +70 опасность
перегрева
998.9 997.2 +30.1
09 13.07 СВ 5 8000 м мгла ясно +33.4 +29.1 78 +57 +69 опасность
перегрева
998.0 996.3
12 13.07 СВ 7 7000 м мгла ясно +32.3 +28.5 80 +54 +56 опасность
перегрева
996.5 994.8
15 13.07 СВ 3 8000 м мгла ясно +30.8 +28.4 87 +52 +52 опасность
перегрева
996.9 995.2
18 13.07 СЗ 3 8000 м мгла ясно +30.8 +28.6 88 +52 +52 опасность
перегрева
998.2 996.5 +34.3
21 13.07 СЗ 4 6000 м мгла 3/3 360 м
[St]
+30.5 +29.3 93 +54 +54 опасность
перегрева
997.5 995.8
00 14.07 З 3 6000 м мгла 3/3 360 м
[St]
+30.8 +28.6 88 +52 +52 опасность
перегрева
997.6 995.9
03 14.07 СЗ 2 5000 м дымка 3/3 300 м
[St]
+31.1 +28.5 86 +53 +55 опасность
перегрева
999.2 997.5
06 14.07 Ю 3 6000 м мгла ясно +33.0 +28.3 76 +54 +68 опасность
перегрева
999.6 997.9 +30.1
09 14.07 СВ 4 7000 м мгла 3/3 750 м
[Sc]
+32.7 +29.1 81 +56 +66 опасность
перегрева
998.7 997.0
12 14.07 СВ 4 6000 м мгла 3/3 1050 м
[Cu hum]
+32.4 +28.4 80 +54 +58 опасность
перегрева
996.9 995.2
15 14.07 С 2 7000 м мгла 3/0
[Ci fib]
+33.3 +23.3 56 +44 +44 опасность
перегрева
996.5 994.8
18 14.07 СВ 1 10 км ясно +32.7 +26.7 71 +50 +50 опасность
перегрева
997.1 995.4 +33.7
21 14.07 В 2 8000 м мгла ясно +31.5 +28.3 83 +52 +52 опасность
перегрева
995.7 994.0
00 15.07 СВ 1 6000 м мгла ясно +30.8 +28.5 88 +52 +52 опасность
перегрева
995.8 994.1
03 15.07 СВ 2 5000 м мгла ясно +31.1 +29.1 89 +54 +57 опасность
перегрева
996.2 994.5
06 15.07 СВ 4 6000 м мгла ясно +32.7 +29.7 84 +58 +71 опасность
перегрева
996.7 995.0 +30.5
09 15.07 СВ 5 6000 м мгла ясно +34.5 +28.9 73 +58 +70 опасность
перегрева
995.4 993.7
12 15.07 СВ 4 60 км мгла ясно +35.0 +27.1 64 +53 +59 опасность
перегрева
994.4 992.8
15 15.07 С 2 70 км мгла ясно +35.9 +26.9 60 +54 +54 опасность
перегрева
994.4 992.8
18 15.07 СВ 1 8000 м мгла ясно +33.9 +27.6 70 +54 +54 опасность
перегрева
994.7 993.0 +36.1
21 15.07 СВ 2 8000 м мгла ясно +35.1 +24.6 55 +48 +48 опасность
перегрева
993.2 991.6
00 16.07 СВ 2 9000 м мгла ясно +33.5 +27.4 71 +53 +53 опасность
перегрева
993.8 992.1
03 16.07 В 2 70 км ?/? +32.3 +30.5 90 +61 +61 опасность
перегрева
995.3 993.6
06 16.07 СВ 6 70 км мгла ясно +34.0 +30.4 82 +63 +70 опасность
перегрева
996.2 994.5 +31.9
09 16.07 СВ 8 7000 м мгла ясно +34.3 +29.1 74 +58 +61 опасность
перегрева
994.9 993.3

 

Местоположение метеостанции Сиб (Оман): широта 23.58 долгота 58.28 высота над уровнем моря 15 м.

В архиве по умолчанию представлена погода в Сибе за последнюю неделю. Архивные данные за месяц целиком и за предыдущие месяцы, начиная с января 2011 года, Вы можете получить, выбрав интересующий диапазон дат из раскрывающегося списка и нажав кнопку "Ввод!".


*Определитесь, кто Вы:
робот инопланетянин человек

Внимание! Время в таблицах - всемирное. Для получения местного времени необходимо прибавить поправку, которая равна 4 ч.

Смотрите также архив погоды в соседних городах и на ближайших метеорологических станциях:

Погода в Аль Амарат (Оман) (22 км)
Погода в Порту Sultan Qaboos (Оман) (30 км)
Погода в Самаиле (Оман) (47 км)
Погода в Саике (Оман) (87 км)
Погода в Рустаке (Оман) (90 км)
Погода в Ибре (Оман) (97 км)
Погода в Эс-Сувейке (Оман) (106 км)
Погода на Эш-Шам (Оман) (110 км)
Погода в Назве (Оман) (112 км)
Погода в Аль Мудайби (Оман) (120 км)

Пояснения к столбцам:

Ветер - указаны скорость ветра в м/с - средняя за 10 мин, порывы в срок и между сроками (в фигурных скобках) и направление, откуда дует ветер: С - северный, СВ - северо-восточный, В - восточный, ЮВ - юго-восточный, Ю - южный, ЮЗ - юго-западный, З - западный, СЗ - северо-западный.
Видимость - горизонтальная дальность видимости в метрах или километрах. При видимости от 1 до 10 км при отсутствии осадков обычно наблюдается дымка, при ухудшении видимости до 1 км и менее - туман. В сухую погоду видимость может ухудшаться дымом, пылью или мглою.
Явления - указаны атмосферные явления, наблюдавшиеся в срок или в последний час перед сроком; фигурными скобками обозначены явления, наблюдавшиеся между сроками (за 1-3 часа до срока); квадратными скобками обозначены град или гололедные отложения с указанием их диаметра в мм.
Облачность - указаны через наклонную черту общая и нижняя облачность в баллах и высота нижней границы облаков в метрах; квадратными скобками обозначены формы облаков: Ci - перистые, Cs - перисто-слоистые, Cc - перисто-кучевые, Ac - высококучевые, As - высокослоистые, Sc - слоисто-кучевые, Ns - слоисто-дождевые, Cu - кучевые, Cb - кучево-дождевые. Подробнее классификацию облаков см. в Атласе облаков (PDF).
T - Температура воздуха - температура, измеренная на высоте 2 м над землей.
Td - Температура точки росы - температура, при понижении до которой содержащийся в воздухе водяной пар достигнет насыщения.
f - Относительная влажность воздуха - влажноcть воздуха, измеренная на высоте 2 м над землей.
Te - Эффективная температура - температура, которую ощущает одетый по сезону человек в тени. Характеристика душности погоды. При расчете учитывается влияние влажности воздуха и скорости ветра на теплоощущения человека.
Tes - Эффективная температура на солнце - температура, которую ощущает человек, с поправкой на солнечный нагрев. Характеристика знойности погоды. Зависит от высоты солнца над горизонтом, облачности и скорости ветра. Ночью, в пасмурную погоду, а также при ветре 12 м/с и более поправка равна нулю.
P - Атмосферное давление - приведенное к уровню моря атмосферное давление.
Po - Атмосферное давление - измеренное на уровне метеостанции атмосферное давление.
Tmin - Минимальная температура - минимум температуры воздуха на высоте 2 м над землей.
Tmax - Максимальная температура - максимум температуры воздуха на высоте 2 м над землей.
R - Количество осадков - Количество выпавших осадков за период времени, мм. При наведении курсора мыши на число - период времени, за который выпало указанное количество осадков.
R24 - Количество осадков - Количество выпавших осадков за 24 часа, мм.
S - Снежный покров - Высота снежного покрова, см. При наведении курсора мыши на число - состояние снежного покрова и степень покрытия местности в баллах.